Location: Evensen
(52.5775°N, 9.5258°E)
Time: 10:22:04
(UTC+00:00)

Cosmos 1842 - Pass Details

Date: 15 May 2026
Orbit: 395 x 399 km, 82.5° (Epoch: 5 June)

Event Time Altitude Azimuth Distance (km) Brightness Sun altitude
Exits shadow 21:57:16 39° 122° (ESE) 615 3.2 -16.3°
Maximum altitude 21:57:44 42° 95° (E) 579 3.2 -16.3°
Drops below altitude 10° 22:00:44 10° 23° (NNE) 1,453 6.2 -16.4°
Sets 22:02:48 0° 16° (NNE) 2,317 7.5 -16.5°
